Location: Waco, TX
(31.5480°N, 97.1670°W)
Time: 08:55:35
(UTC-05:00)

ISS - Pass Details

Date: 14 October 2019
Orbit: 411 x 421 km, 51.6° (Epoch: 18 October)

Event Time Altitude Azimuth Distance (km) Brightness Sun altitude
Rises 09:09:19 0° 179° (S) 2,346 0.4 19.3°
Reaches altitude 10° 09:12:50 10° 140° (SE) 1,486 0.4 20.0°
Maximum altitude 09:13:41 11° 125° (SE) 1,441 1.0 20.1°
Drops below altitude 10° 09:14:33 10° 110° (ESE) 1,487 1.4 20.3°
Sets 09:18:04 0° 71° (ENE) 2,352 0.8 21.0°
